SES-8

Last updated on Tue Sep 15 2026 00:03:10 GMT+0000 (Coordinated Universal Time)

1 39460U 13071A 26257.59399442 -.00000277 00000+0 00000+0 0 9996 2 39460 0.0440 268.6918 0002025 243.6939 150.0272 1.00271375 45324
UTC large
Height (km)
Speed (km/s)
/
Latitude / Longitude
Inclination (degrees)
Orbital Period (minutes)
Azimuth
Elevation
Range (km)
Doppler Factor

Next 0 passes for location: London (51.5072 / 0.1276)

No passes found over London.
SES-8